sat.trackr.live / text

‹ back to catalog

PIAST-M

NORAD 66758 · 2025-276CW

PAYLOAD ACTIVE UNKNOWN

§ Identity

Operator
Country
POL
Launch date
2025-11-28
Launch site
AFWTR
Launch vehicle
Mass (kg)
RCS (m²)

External: N2YO · Heavens-Above · Gunter

§ Orbital elements

Epoch: 2026-09-20T22:36:33.063840Z

Period
94.67 min
Inclination
97.4104°
Eccentricity
0.0001527
Mean motion
15.21034813 rev/d
Perigee alt
501.7 km
Apogee alt
503.8 km
Semi-major
6,880.9 km
B*
1.4778e-4
RAAN
336.0708°
Arg perigee
55.0853°
Mean anomaly
305.0526°
Rev number
4,498

§ Raw data

PIAST-M1 66758U 25276CW  26263.94204935  .00003211  00000+0  14778-3 0  99952 66758  97.4104 336.0708 0001527  55.0853 305.0526 15.21034813 44981

JSON: /api/v1/satellites/66758 · /tle

For live sub-satellite position, see the globe view (requires WebGL).

§ Visibility from observer

Set your observer location to see the next 7 days of passes ≥ 10°. The values pass through the URL so the page stays shareable.

No JS? Fill the form by hand. The geolocation button needs JavaScript.